Fallon NAS, NV

11:31 PM PDT on October 17, 2017 (GMT -0700)
Fallon Naval Air Station

Weather History for KNFL - October, 2011

Change the Weather History Date:

Saturday, October 22, 2011

  Actual Average Record
Temperature  
Mean Temperature 56 °F -  
Max Temperature 75 °F 68 °F 82 °F (2003)
Min Temperature 36 °F 32 °F 18 °F (1935)
Degree Days  
Heating Degree Days 10    
Growing Degree Days 6 (Base 50)    
Moisture  
Dew Point 26 °F    
Average Humidity 37    
Maximum Humidity 55    
Minimum Humidity 17    
Precipitation  
Precipitation 0.00 in - - ()
Sea Level Pressure  
Sea Level Pressure 30.17 in    
Wind  
Wind Speed 3 mph (South)    
Max Wind Speed 9 mph    
Max Gust Speed -    
Visibility 10 miles    
Events      
Averages and records for this station are not official NWS values.
T = Trace of Precipitation, MM = Missing Value Source: NWS Daily Summary

Daily Weather History Graph

Daily Weather History Graph

Search for Another Location

Airport or City:

Trip Planner

Search our weather history database for the weather conditions in past years. The results will help you decide how hot, cold, wet, or windy it might be!

Date:

Astronomy

Oct. 22, 2011 Rise Set
Actual Time 7:11 AM PDT 6:06 PM PDT
Civil Twilight 6:44 AM PDT 6:33 PM PDT
Nautical Twilight 6:13 AM PDT 7:04 PM PDT
Astronomical Twilight 5:42 AM PDT 7:35 PM PDT
Moon 2:16 AM PDT (10/22) 3:25 PM PDT (10/22)
Length of Visible Light 11h 48m
Length of Day
10h 54m
Waning Crescent, 22% of the Moon is Illuminated
Oct 22
Waning Crescent
Oct 26
New
Nov 2
First Quarter
Nov 10
Full
Nov 18
Last Quarter

Hourly Weather History & Observations

Time (PDT) Temp. Windchill Dew Point Humidity Pressure Visibility Wind Dir Wind Speed Gust Speed Precip Events Conditions
12:56 AM 45.0 °F 43.5 °F 28.0 °F 52% 30.16 in 10.0 mi South 3.5 mph - N/A   Clear
1:56 AM 44.1 °F - 24.1 °F 45% 30.17 in 10.0 mi Calm Calm - N/A   Clear
2:56 AM 41.0 °F 35.2 °F 21.0 °F 45% 30.17 in 10.0 mi SSE 9.2 mph - N/A   Clear
3:56 AM 42.1 °F 38.4 °F 21.9 °F 45% 30.16 in 10.0 mi SSE 5.8 mph - N/A   Clear
4:56 AM 39.9 °F 35.8 °F 23.0 °F 51% 30.17 in 10.0 mi South 5.8 mph - N/A   Clear
5:56 AM 41.0 °F - 23.0 °F 49% 30.18 in 10.0 mi Calm Calm - N/A   Clear
6:56 AM 36.0 °F - 21.0 °F 55% 30.19 in 10.0 mi Calm Calm - N/A   Clear
7:56 AM 39.9 °F - 24.1 °F 53% 30.21 in 10.0 mi Calm Calm - N/A   Clear
8:56 AM 50.0 °F - 25.0 °F 38% 30.22 in 10.0 mi Calm Calm - N/A   Clear
9:03 AM 51.8 °F - 24.8 °F 35% 30.35 in 10.0 mi Calm Calm - N/A   Scattered Clouds
9:56 AM 57.0 °F - 25.0 °F 29% 30.23 in 10.0 mi South 3.5 mph - N/A   Scattered Clouds
10:56 AM 63.0 °F - 25.0 °F 24% 30.22 in 10.0 mi Calm Calm - N/A   Scattered Clouds
11:56 AM 66.9 °F - 28.9 °F 24% 30.21 in 10.0 mi Calm Calm - N/A   Scattered Clouds
12:56 PM 69.1 °F - 27.0 °F 21% 30.19 in 10.0 mi Variable 3.5 mph - N/A   Scattered Clouds
1:56 PM 73.9 °F - 28.9 °F 19% 30.17 in 10.0 mi Variable 4.6 mph - N/A   Scattered Clouds
2:56 PM 73.9 °F - 27.0 °F 18% 30.15 in 10.0 mi North 3.5 mph - N/A   Scattered Clouds
3:56 PM 75.0 °F - 27.0 °F 17% 30.14 in 10.0 mi NE 5.8 mph - N/A   Scattered Clouds
4:56 PM 73.9 °F - 28.0 °F 18% 30.12 in 10.0 mi NE 8.1 mph - N/A   Partly Cloudy
5:56 PM 68.0 °F - 28.0 °F 22% 30.12 in 10.0 mi NE 5.8 mph - N/A   Partly Cloudy
6:56 PM 57.9 °F - 30.0 °F 35% 30.12 in 10.0 mi North - - N/A   Clear
7:56 PM 54.0 °F - 28.9 °F 38% 30.12 in 10.0 mi Calm Calm - N/A   Clear
8:56 PM 51.1 °F - 32.0 °F 48% 30.13 in 10.0 mi WSW 4.6 mph - N/A   Clear
9:56 PM 46.0 °F 44.8 °F 30.0 °F 54% 30.13 in 10.0 mi SSW 3.5 mph - N/A   Clear
10:56 PM 48.0 °F - 28.0 °F 46% 30.13 in 10.0 mi South 4.6 mph - N/A   Clear
11:56 PM 46.9 °F - 27.0 °F 46% 30.13 in 10.0 mi SSW 3.5 mph - N/A   Clear